Time,TemperatureF,DewpointF,PressureIn,WindDirection,WindDirectionDegrees,WindSpeedMPH,WindSpeedGustMPH,Humidity,HourlyPrecipIn,Conditions,Clouds,dailyrainin,SolarRadiationWatts/m^2,SoftwareType,DateUTC
2013-06-27 00:01:00,67.3,65.8,29.80,SSE,160,3.0,9.0,95,0.20,,,0.89,0.0,meteohub,2013-06-27 04:01:00,
2013-06-27 00:02:00,67.3,65.8,29.80,SSE,150,6.0,9.0,95,0.20,,,0.89,0.0,meteohub,2013-06-27 04:02:00,
2013-06-27 00:03:00,67.3,65.8,29.79,SE,142,4.0,9.0,95,0.20,,,0.89,0.0,meteohub,2013-06-27 04:03:00,
2013-06-27 00:08:00,67.5,66.2,29.79,SE,125,6.0,11.0,96,0.18,,,0.90,0.0,meteohub,2013-06-27 04:08:00,
2013-06-27 00:13:00,67.5,66.2,29.79,East,92,0.0,11.0,96,0.16,,,0.91,0.0,meteohub,2013-06-27 04:13:00,
2013-06-27 00:18:00,67.5,66.2,29.80,North,5,2.0,8.0,96,0.16,,,0.92,0.0,meteohub,2013-06-27 04:18:00,
2013-06-27 00:23:00,67.5,66.2,29.79,ESE,119,1.0,6.0,96,0.14,,,0.94,0.0,meteohub,2013-06-27 04:23:00,
2013-06-27 00:28:00,67.5,66.2,29.79,ESE,119,0.0,3.0,96,0.13,,,0.95,0.0,meteohub,2013-06-27 04:28:00,
2013-06-27 00:33:00,67.5,66.2,29.79,ESE,119,1.0,3.0,96,0.12,,,0.96,0.0,meteohub,2013-06-27 04:33:00,
2013-06-27 00:38:00,67.5,66.2,29.78,ESE,121,2.0,3.0,96,0.12,,,0.97,0.0,meteohub,2013-06-27 04:38:00,
2013-06-27 00:43:00,67.5,66.2,29.78,SE,136,0.0,3.0,96,0.12,,,0.98,0.0,meteohub,2013-06-27 04:43:00,
2013-06-27 00:48:00,67.5,66.2,29.78,SE,133,1.0,5.0,96,0.12,,,0.99,0.0,meteohub,2013-06-27 04:48:00,
2013-06-27 00:53:00,67.3,66.0,29.78,SE,130,0.0,5.0,96,0.12,,,1.00,0.0,meteohub,2013-06-27 04:53:00,
2013-06-27 00:58:00,67.3,65.8,29.80,SSE,151,0.0,5.0,95,0.13,,,1.02,0.0,meteohub,2013-06-27 04:58:00,
2013-06-27 01:04:00,67.3,65.8,29.81,South,170,2.0,5.0,95,0.12,,,1.02,0.0,meteohub,2013-06-27 05:04:00,
2013-06-27 01:09:00,67.3,65.8,29.80,SSE,150,3.0,5.0,95,0.12,,,1.03,0.0,meteohub,2013-06-27 05:09:00,
2013-06-27 01:14:00,67.3,65.8,29.80,SSE,148,2.0,4.0,95,0.12,,,1.04,0.0,meteohub,2013-06-27 05:14:00,
2013-06-27 01:19:00,67.3,66.0,29.82,West,264,3.0,4.0,96,0.12,,,1.05,0.0,meteohub,2013-06-27 05:19:00,
2013-06-27 01:24:00,67.3,66.0,29.83,WSW,243,5.0,5.0,96,0.13,,,1.07,0.0,meteohub,2013-06-27 05:24:00,
2013-06-27 01:29:00,67.3,66.0,29.84,WNW,282,3.0,7.0,96,0.14,,,1.08,0.0,meteohub,2013-06-27 05:29:00,
2013-06-27 01:34:00,67.3,66.0,29.84,West,275,2.0,7.0,96,0.14,,,1.10,0.0,meteohub,2013-06-27 05:34:00,
2013-06-27 01:39:00,67.5,66.2,29.83,SW,215,1.0,7.0,96,0.14,,,1.12,0.0,meteohub,2013-06-27 05:39:00,
2013-06-27 01:44:00,67.5,66.2,29.84,South,173,3.0,5.0,96,0.15,,,1.13,0.0,meteohub,2013-06-27 05:44:00,
2013-06-27 01:49:00,67.6,66.4,29.83,SSE,162,2.0,5.0,96,0.14,,,1.14,0.0,meteohub,2013-06-27 05:49:00,
2013-06-27 01:54:00,67.6,66.4,29.83,SE,129,4.0,4.0,96,0.13,,,1.14,0.0,meteohub,2013-06-27 05:54:00,
2013-06-27 01:59:00,67.6,66.4,29.82,SSE,147,2.0,5.0,96,0.12,,,1.14,0.0,meteohub,2013-06-27 05:59:00,
2013-06-27 02:04:00,67.5,66.2,29.81,SSE,147,0.0,6.0,96,0.11,,,1.14,0.0,meteohub,2013-06-27 06:04:00,
2013-06-27 02:09:00,67.5,66.2,29.81,SE,144,3.0,8.0,96,0.11,,,1.14,0.0,meteohub,2013-06-27 06:09:00,
2013-06-27 02:15:00,67.5,66.2,29.81,South,171,2.0,8.0,96,0.10,,,1.14,0.0,meteohub,2013-06-27 06:15:00,
2013-06-27 02:20:00,67.5,66.2,29.81,SSE,150,3.0,8.0,96,0.08,,,1.14,0.0,meteohub,2013-06-27 06:20:00,
2013-06-27 02:25:00,67.5,66.2,29.81,SE,134,2.0,7.0,96,0.07,,,1.14,0.0,meteohub,2013-06-27 06:25:00,
2013-06-27 02:30:00,67.5,66.2,29.80,SE,146,3.0,7.0,96,0.05,,,1.14,0.0,meteohub,2013-06-27 06:30:00,
2013-06-27 02:35:00,67.5,66.2,29.79,ESE,115,2.0,7.0,96,0.03,,,1.14,0.0,meteohub,2013-06-27 06:35:00,
2013-06-27 02:40:00,67.5,66.2,29.79,ENE,69,1.0,6.0,96,0.02,,,1.14,0.0,meteohub,2013-06-27 06:40:00,
2013-06-27 02:45:00,67.3,66.0,29.79,South,176,1.0,6.0,96,0.01,,,1.14,0.0,meteohub,2013-06-27 06:45:00,
2013-06-27 02:50:00,67.3,66.0,29.79,South,173,5.0,6.0,96,0.00,,,1.14,0.0,meteohub,2013-06-27 06:50:00,
2013-06-27 02:55:00,67.3,66.0,29.81,West,269,4.0,5.0,96,0.00,,,1.14,0.0,meteohub,2013-06-27 06:55:00,
2013-06-27 03:00:00,67.3,66.0,29.81,SW,226,3.0,6.0,96,0.00,,,1.14,0.0,meteohub,2013-06-27 07:00:00,
2013-06-27 03:05:00,67.3,66.0,29.80,SSE,162,2.0,6.0,96,0.00,,,1.14,0.0,meteohub,2013-06-27 07:05:00,
2013-06-27 03:10:00,67.3,66.0,29.80,WSW,242,3.0,6.0,96,0.00,,,1.14,0.0,meteohub,2013-06-27 07:10:00,
2013-06-27 03:15:00,67.3,66.0,29.80,SSE,167,0.0,6.0,96,0.00,,,1.14,0.0,meteohub,2013-06-27 07:15:00,
2013-06-27 03:20:00,67.3,66.0,29.79,SSE,167,1.0,6.0,96,0.00,,,1.14,0.0,meteohub,2013-06-27 07:20:00,
2013-06-27 03:26:00,67.3,66.0,29.79,South,180,0.0,4.0,96,0.00,,,1.14,0.0,meteohub,2013-06-27 07:26:00,
2013-06-27 03:31:00,67.3,66.0,29.78,South,179,1.0,4.0,96,0.00,,,1.14,0.0,meteohub,2013-06-27 07:31:00,
2013-06-27 03:36:00,67.3,66.0,29.78,South,179,1.0,4.0,96,0.00,,,1.14,0.0,meteohub,2013-06-27 07:36:00,
2013-06-27 03:41:00,67.3,66.0,29.78,SSE,163,3.0,4.0,96,0.00,,,1.14,0.0,meteohub,2013-06-27 07:41:00,
2013-06-27 03:46:00,67.3,66.0,29.78,SSW,197,0.0,4.0,96,0.00,,,1.14,0.0,meteohub,2013-06-27 07:46:00,
2013-06-27 03:51:00,67.3,66.0,29.78,SW,223,0.0,4.0,96,0.00,,,1.14,0.0,meteohub,2013-06-27 07:51:00,
2013-06-27 03:56:00,67.3,66.0,29.78,SSE,161,3.0,4.0,96,0.00,,,1.14,0.0,meteohub,2013-06-27 07:56:00,
2013-06-27 04:01:00,67.5,66.2,29.78,SE,131,3.0,4.0,96,0.00,,,1.14,0.0,meteohub,2013-06-27 08:01:00,
2013-06-27 04:06:00,67.5,66.2,29.78,South,169,2.0,4.0,96,0.00,,,1.14,0.0,meteohub,2013-06-27 08:06:00,
2013-06-27 04:11:00,67.5,66.2,29.78,South,179,2.0,6.0,96,0.00,,,1.14,0.0,meteohub,2013-06-27 08:11:00,
2013-06-27 04:16:00,67.5,66.2,29.78,SE,146,2.0,6.0,96,0.00,,,1.14,0.0,meteohub,2013-06-27 08:16:00,
2013-06-27 04:21:00,67.6,66.4,29.78,SW,230,3.0,6.0,96,0.00,,,1.14,0.0,meteohub,2013-06-27 08:21:00,
2013-06-27 04:26:00,67.6,66.4,29.78,SSW,198,2.0,5.0,96,0.00,,,1.14,0.0,meteohub,2013-06-27 08:26:00,
2013-06-27 04:31:00,67.6,66.4,29.78,SSW,196,2.0,5.0,96,0.00,,,1.14,0.0,meteohub,2013-06-27 08:31:00,
2013-06-27 04:36:00,67.6,66.4,29.78,SSW,199,2.0,5.0,96,0.00,,,1.14,0.0,meteohub,2013-06-27 08:36:00,
2013-06-27 04:42:00,67.8,66.6,29.78,SW,230,4.0,5.0,96,0.00,,,1.14,0.0,meteohub,2013-06-27 08:42:00,
2013-06-27 04:47:00,67.8,66.6,29.78,SSW,205,1.0,6.0,96,0.00,,,1.14,0.0,meteohub,2013-06-27 08:47:00,
2013-06-27 04:52:00,67.8,66.6,29.78,WSW,238,3.0,6.0,96,0.00,,,1.14,0.0,meteohub,2013-06-27 08:52:00,
2013-06-27 04:57:00,67.8,66.6,29.78,South,191,0.0,6.0,96,0.00,,,1.14,0.0,meteohub,2013-06-27 08:57:00,
2013-06-27 05:02:00,67.8,66.6,29.78,SW,234,2.0,5.0,96,0.00,,,1.14,0.0,meteohub,2013-06-27 09:02:00,
2013-06-27 05:07:00,68.0,66.7,29.78,SW,236,1.0,5.0,96,0.00,,,1.14,0.0,meteohub,2013-06-27 09:07:00,
2013-06-27 05:12:00,68.0,66.7,29.78,SW,231,3.0,5.0,96,0.00,,,1.14,0.0,meteohub,2013-06-27 09:12:00,
2013-06-27 05:17:00,68.0,66.7,29.78,SSW,205,2.0,3.0,96,0.00,,,1.14,0.0,meteohub,2013-06-27 09:17:00,
2013-06-27 05:22:00,68.0,66.7,29.78,SSE,163,1.0,4.0,96,0.00,,,1.14,0.0,meteohub,2013-06-27 09:22:00,
2013-06-27 05:27:00,68.0,66.7,29.78,SSW,198,3.0,4.0,96,0.00,,,1.14,0.0,meteohub,2013-06-27 09:27:00,
2013-06-27 05:32:00,68.0,66.7,29.78,SW,221,0.0,5.0,96,0.00,,,1.14,0.0,meteohub,2013-06-27 09:32:00,
2013-06-27 05:38:00,68.0,66.7,29.78,WSW,239,1.0,5.0,96,0.00,,,1.14,0.0,meteohub,2013-06-27 09:38:00,
2013-06-27 05:43:00,68.0,66.7,29.78,SSW,210,2.0,5.0,96,0.00,,,1.14,0.0,meteohub,2013-06-27 09:43:00,
2013-06-27 05:48:00,68.0,66.7,29.78,SW,226,3.0,5.0,96,0.00,,,1.14,0.0,meteohub,2013-06-27 09:48:00,
2013-06-27 05:53:00,68.0,66.7,29.78,SSW,197,0.0,5.0,96,0.00,,,1.14,0.0,meteohub,2013-06-27 09:53:00,
2013-06-27 05:58:00,68.0,66.7,29.78,SW,230,1.0,5.0,96,0.00,,,1.14,0.0,meteohub,2013-06-27 09:58:00,
2013-06-27 06:03:00,68.0,66.7,29.78,SW,229,2.0,5.0,96,0.00,,,1.14,0.0,meteohub,2013-06-27 10:03:00,
2013-06-27 06:08:00,68.0,66.7,29.78,SW,235,0.0,5.0,96,0.00,,,1.14,0.0,meteohub,2013-06-27 10:08:00,
2013-06-27 06:13:00,68.0,66.7,29.78,SW,236,3.0,5.0,96,0.00,,,1.14,0.0,meteohub,2013-06-27 10:13:00,
2013-06-27 06:18:00,68.0,66.7,29.79,SW,232,1.0,5.0,96,0.00,,,1.14,0.0,meteohub,2013-06-27 10:18:00,
2013-06-27 06:23:00,68.0,66.7,29.79,South,169,1.0,5.0,96,0.00,,,1.14,0.0,meteohub,2013-06-27 10:23:00,
2013-06-27 06:28:00,67.8,66.6,29.79,SW,231,3.0,7.0,96,0.00,,,1.14,0.0,meteohub,2013-06-27 10:28:00,
2013-06-27 06:33:00,67.8,66.6,29.79,SW,225,3.0,7.0,96,0.00,,,1.14,0.0,meteohub,2013-06-27 10:33:00,
2013-06-27 06:39:00,68.0,66.7,29.79,WSW,240,3.0,5.0,96,0.00,,,1.14,0.0,meteohub,2013-06-27 10:39:00,
2013-06-27 06:44:00,68.0,66.7,29.79,WSW,246,3.0,5.0,96,0.00,,,1.14,5.0,meteohub,2013-06-27 10:44:00,
2013-06-27 06:49:00,68.0,66.7,29.79,West,259,3.0,6.0,96,0.00,,,1.14,0.0,meteohub,2013-06-27 10:49:00,
2013-06-27 06:54:00,68.0,66.7,29.79,West,264,2.0,6.0,96,0.00,,,1.14,0.0,meteohub,2013-06-27 10:54:00,
2013-06-27 06:59:00,68.0,66.7,29.79,SW,219,1.0,5.0,96,0.00,,,1.14,9.0,meteohub,2013-06-27 10:59:00,
2013-06-27 07:04:00,68.0,66.7,29.80,SW,232,4.0,5.0,96,0.00,,,1.14,9.0,meteohub,2013-06-27 11:04:00,
2013-06-27 07:09:00,68.2,66.9,29.80,WSW,242,4.0,6.0,96,0.00,,,1.14,12.0,meteohub,2013-06-27 11:09:00,
2013-06-27 07:14:00,68.2,66.9,29.80,SW,219,6.0,8.0,96,0.00,,,1.14,12.0,meteohub,2013-06-27 11:14:00,
2013-06-27 07:19:00,68.2,66.9,29.79,SW,223,1.0,8.0,96,0.00,,,1.14,16.0,meteohub,2013-06-27 11:19:00,
2013-06-27 07:24:00,68.4,67.1,29.79,WSW,240,2.0,7.0,96,0.00,,,1.14,18.0,meteohub,2013-06-27 11:24:00,
2013-06-27 07:30:00,68.4,67.1,29.79,SW,215,2.0,7.0,96,0.00,,,1.14,21.0,meteohub,2013-06-27 11:30:00,
2013-06-27 07:35:00,68.4,67.1,29.79,WSW,257,2.0,6.0,96,0.00,,,1.14,25.0,meteohub,2013-06-27 11:35:00,
2013-06-27 07:40:00,68.5,67.3,29.79,WSW,244,2.0,7.0,96,0.00,,,1.14,35.0,meteohub,2013-06-27 11:40:00,
2013-06-27 07:45:00,68.5,67.3,29.80,SSW,205,3.0,7.0,96,0.00,,,1.14,46.0,meteohub,2013-06-27 11:45:00,
2013-06-27 07:50:00,68.7,67.5,29.79,West,266,2.0,5.0,96,0.00,,,1.14,49.0,meteohub,2013-06-27 11:50:00,
2013-06-27 07:55:00,68.9,67.6,29.79,SW,234,3.0,5.0,96,0.00,,,1.14,53.0,meteohub,2013-06-27 11:55:00,
2013-06-27 08:00:00,68.9,67.6,29.79,WNW,286,1.0,5.0,96,0.00,,,1.14,42.0,meteohub,2013-06-27 12:00:00,
2013-06-27 08:05:00,69.1,67.8,29.80,SSW,205,2.0,6.0,96,0.00,,,1.14,49.0,meteohub,2013-06-27 12:05:00,
2013-06-27 08:10:00,69.1,67.8,29.80,West,276,4.0,8.0,96,0.00,,,1.14,46.0,meteohub,2013-06-27 12:10:00,
2013-06-27 08:15:00,69.3,68.0,29.80,West,273,2.0,8.0,96,0.00,,,1.14,60.0,meteohub,2013-06-27 12:15:00,
2013-06-27 08:20:00,69.3,68.0,29.80,WSW,239,4.0,8.0,96,0.00,,,1.14,58.0,meteohub,2013-06-27 12:20:00,
2013-06-27 08:25:00,69.4,68.2,29.80,SW,234,5.0,7.0,96,0.00,,,1.14,44.0,meteohub,2013-06-27 12:25:00,
2013-06-27 08:30:00,69.4,68.2,29.80,WNW,290,1.0,7.0,96,0.00,,,1.14,83.0,meteohub,2013-06-27 12:30:00,
2013-06-27 08:36:00,69.6,68.4,29.79,WNW,300,3.0,6.0,96,0.00,,,1.14,76.0,meteohub,2013-06-27 12:36:00,
2013-06-27 08:41:00,69.8,68.5,29.80,WNW,293,2.0,6.0,96,0.00,,,1.14,81.0,meteohub,2013-06-27 12:41:00,
2013-06-27 08:46:00,69.8,68.5,29.80,WNW,294,2.0,8.0,96,0.00,,,1.14,76.0,meteohub,2013-06-27 12:46:00,
2013-06-27 08:51:00,69.8,68.5,29.80,WNW,288,3.0,9.0,96,0.00,,,1.14,81.0,meteohub,2013-06-27 12:51:00,
2013-06-27 08:56:00,70.0,68.7,29.80,West,277,2.0,9.0,96,0.00,,,1.14,90.0,meteohub,2013-06-27 12:56:00,
2013-06-27 09:01:00,70.0,68.7,29.80,WNW,290,8.0,9.0,96,0.00,,,1.14,98.0,meteohub,2013-06-27 13:01:00,
2013-06-27 09:06:00,70.0,68.7,29.80,WSW,238,7.0,11.0,96,0.00,,,1.14,88.0,meteohub,2013-06-27 13:06:00,
2013-06-27 09:11:00,70.2,68.9,29.80,West,262,5.0,11.0,96,0.00,,,1.14,114.0,meteohub,2013-06-27 13:11:00,
2013-06-27 09:16:00,70.2,68.9,29.80,SSW,205,3.0,11.0,96,0.00,,,1.14,109.0,meteohub,2013-06-27 13:16:00,
2013-06-27 09:21:00,70.2,68.9,29.80,WNW,294,1.0,8.0,96,0.00,,,1.14,141.0,meteohub,2013-06-27 13:21:00,
2013-06-27 09:26:00,70.3,69.1,29.80,NNW,346,3.0,8.0,96,0.00,,,1.14,156.0,meteohub,2013-06-27 13:26:00,
2013-06-27 09:31:00,70.3,69.1,29.80,WNW,285,3.0,10.0,96,0.00,,,1.14,153.0,meteohub,2013-06-27 13:31:00,
2013-06-27 09:37:00,70.5,69.3,29.80,WNW,299,8.0,10.0,96,0.00,,,1.14,169.0,meteohub,2013-06-27 13:37:00,
2013-06-27 09:42:00,70.7,69.4,29.80,NW,307,3.0,10.0,96,0.00,,,1.14,188.0,meteohub,2013-06-27 13:42:00,
2013-06-27 09:47:00,71.1,69.8,29.80,WNW,299,5.0,8.0,96,0.00,,,1.14,264.0,meteohub,2013-06-27 13:47:00,
2013-06-27 09:52:00,71.2,70.0,29.80,NW,314,4.0,8.0,96,0.00,,,1.14,281.0,meteohub,2013-06-27 13:52:00,
2013-06-27 09:57:00,71.8,70.5,29.79,West,269,5.0,6.0,96,0.00,,,1.14,374.0,meteohub,2013-06-27 13:57:00,
2013-06-27 10:02:00,72.3,70.9,29.79,West,267,3.0,7.0,95,0.00,,,1.14,371.0,meteohub,2013-06-27 14:02:00,
2013-06-27 10:07:00,72.7,70.9,29.79,West,269,5.0,9.0,94,0.00,,,1.14,374.0,meteohub,2013-06-27 14:07:00,
2013-06-27 10:12:00,72.9,70.3,29.79,West,269,3.0,9.0,92,0.00,,,1.14,250.0,meteohub,2013-06-27 14:12:00,
2013-06-27 10:17:00,73.0,70.9,29.79,WNW,286,3.0,9.0,93,0.00,,,1.14,323.0,meteohub,2013-06-27 14:17:00,
2013-06-27 10:22:00,73.6,71.1,29.80,West,263,6.0,9.0,92,0.00,,,1.14,343.0,meteohub,2013-06-27 14:22:00,
2013-06-27 10:27:00,73.8,70.9,29.80,WNW,287,3.0,9.0,91,0.00,,,1.14,381.0,meteohub,2013-06-27 14:27:00,
2013-06-27 10:32:00,73.8,70.9,29.79,WNW,290,1.0,9.0,91,0.00,,,1.14,390.0,meteohub,2013-06-27 14:32:00,
2013-06-27 10:37:00,74.5,71.6,29.79,WNW,284,4.0,9.0,91,0.00,,,1.14,374.0,meteohub,2013-06-27 14:37:00,
2013-06-27 10:42:00,74.5,71.4,29.79,West,265,2.0,9.0,90,0.00,,,1.14,301.0,meteohub,2013-06-27 14:42:00,
2013-06-27 10:48:00,74.5,71.1,29.78,WSW,253,4.0,8.0,89,0.00,,,1.14,367.0,meteohub,2013-06-27 14:48:00,
2013-06-27 10:53:00,74.7,71.6,29.78,West,269,5.0,8.0,90,0.00,,,1.14,390.0,meteohub,2013-06-27 14:53:00,
2013-06-27 10:58:00,75.2,71.4,29.78,West,271,5.0,9.0,88,0.00,,,1.14,415.0,meteohub,2013-06-27 14:58:00,
2013-06-27 11:03:00,75.6,72.5,29.79,WSW,238,6.0,9.0,90,0.00,,,1.14,401.0,meteohub,2013-06-27 15:03:00,
2013-06-27 11:08:00,76.1,72.3,29.78,South,184,3.0,9.0,88,0.00,,,1.14,357.0,meteohub,2013-06-27 15:08:00,
2013-06-27 11:13:00,76.6,72.1,29.78,SW,227,6.0,8.0,86,0.00,,,1.14,330.0,meteohub,2013-06-27 15:13:00,
2013-06-27 11:18:00,76.8,72.3,29.78,WSW,244,9.0,10.0,86,0.00,,,1.14,323.0,meteohub,2013-06-27 15:18:00,
2013-06-27 11:23:00,76.3,71.8,29.79,WSW,257,4.0,10.0,86,0.00,,,1.14,348.0,meteohub,2013-06-27 15:23:00,
2013-06-27 11:28:00,76.6,72.5,29.78,West,276,7.0,10.0,87,0.00,,,1.14,638.0,meteohub,2013-06-27 15:28:00,
2013-06-27 11:33:00,77.0,71.8,29.79,West,263,9.0,10.0,84,0.00,,,1.14,390.0,meteohub,2013-06-27 15:33:00,
2013-06-27 11:39:00,77.2,72.3,29.79,SW,236,1.0,10.0,85,0.00,,,1.14,803.0,meteohub,2013-06-27 15:39:00,
2013-06-27 11:44:00,78.6,73.4,29.78,WNW,289,8.0,11.0,84,0.00,,,1.14,418.0,meteohub,2013-06-27 15:44:00,
2013-06-27 11:49:00,78.1,72.1,29.78,WSW,255,3.0,11.0,82,0.00,,,1.14,271.0,meteohub,2013-06-27 15:49:00,
2013-06-27 11:54:00,78.3,73.4,29.78,West,277,3.0,10.0,85,0.00,,,1.14,1086.0,meteohub,2013-06-27 15:54:00,
2013-06-27 11:59:00,78.4,72.9,29.78,SW,221,3.0,10.0,83,0.00,,,1.14,292.0,meteohub,2013-06-27 15:59:00,
2013-06-27 12:04:00,78.3,73.0,29.78,WNW,295,6.0,10.0,84,0.00,,,1.14,554.0,meteohub,2013-06-27 16:04:00,
2013-06-27 12:09:00,78.6,73.0,29.78,SW,219,3.0,10.0,83,0.00,,,1.14,889.0,meteohub,2013-06-27 16:09:00,
2013-06-27 12:14:00,78.6,73.0,29.78,WSW,254,3.0,9.0,83,0.00,,,1.14,343.0,meteohub,2013-06-27 16:14:00,
2013-06-27 12:19:00,79.2,74.3,29.77,SW,219,3.0,9.0,85,0.00,,,1.14,647.0,meteohub,2013-06-27 16:19:00,
2013-06-27 12:24:00,80.2,74.3,29.77,SW,229,8.0,9.0,82,0.00,,,1.14,949.0,meteohub,2013-06-27 16:24:00,
2013-06-27 12:30:00,80.2,73.6,29.77,West,271,3.0,8.0,80,0.00,,,1.14,360.0,meteohub,2013-06-27 16:30:00,
2013-06-27 12:35:00,79.3,72.3,29.78,West,277,9.0,9.0,79,0.00,,,1.14,209.0,meteohub,2013-06-27 16:35:00,
2013-06-27 12:40:00,78.6,72.0,29.78,NNW,335,3.0,9.0,80,0.00,,,1.14,127.0,meteohub,2013-06-27 16:40:00,
2013-06-27 12:45:00,78.1,71.8,29.78,WSW,248,4.0,10.0,81,0.00,,,1.14,111.0,meteohub,2013-06-27 16:45:00,
2013-06-27 12:50:00,77.7,72.1,29.78,SSE,165,1.0,10.0,83,0.00,,,1.14,176.0,meteohub,2013-06-27 16:50:00,
2013-06-27 12:55:00,77.4,72.1,29.78,WSW,244,3.0,10.0,84,0.00,,,1.14,178.0,meteohub,2013-06-27 16:55:00,
2013-06-27 13:00:00,77.2,72.7,29.78,West,271,3.0,9.0,86,0.00,,,1.14,211.0,meteohub,2013-06-27 17:00:00,
2013-06-27 13:05:00,77.4,73.2,29.78,West,274,3.0,9.0,87,0.00,,,1.14,406.0,meteohub,2013-06-27 17:05:00,
2013-06-27 13:10:00,77.4,72.5,29.78,WNW,290,6.0,9.0,85,0.00,,,1.14,213.0,meteohub,2013-06-27 17:10:00,
2013-06-27 13:15:00,77.4,72.9,29.78,West,280,5.0,9.0,86,0.00,,,1.14,302.0,meteohub,2013-06-27 17:15:00,
2013-06-27 13:20:00,77.9,73.8,29.78,NNW,334,5.0,9.0,87,0.00,,,1.14,327.0,meteohub,2013-06-27 17:20:00,
2013-06-27 13:25:00,78.1,72.9,29.78,NW,306,3.0,8.0,84,0.00,,,1.14,221.0,meteohub,2013-06-27 17:25:00,
2013-06-27 13:31:00,78.3,73.8,29.78,WSW,255,3.0,8.0,86,0.00,,,1.14,408.0,meteohub,2013-06-27 17:31:00,
2013-06-27 13:36:00,78.6,73.4,29.78,West,263,7.0,8.0,84,0.00,,,1.14,213.0,meteohub,2013-06-27 17:36:00,
2013-06-27 13:41:00,78.1,73.2,29.78,WNW,284,5.0,12.0,85,0.00,,,1.14,244.0,meteohub,2013-06-27 17:41:00,
2013-06-27 13:46:00,77.7,73.2,29.78,West,265,5.0,12.0,86,0.00,,,1.14,330.0,meteohub,2013-06-27 17:46:00,
2013-06-27 13:51:00,78.1,73.9,29.78,WSW,252,6.0,10.0,87,0.00,,,1.14,420.0,meteohub,2013-06-27 17:51:00,
2013-06-27 13:56:00,79.5,75.0,29.78,WSW,251,3.0,10.0,86,0.00,,,1.14,874.0,meteohub,2013-06-27 17:56:00,
2013-06-27 14:01:00,80.4,74.8,29.78,West,260,7.0,9.0,83,0.00,,,1.14,452.0,meteohub,2013-06-27 18:01:00,
2013-06-27 14:06:00,80.6,74.7,29.78,West,259,5.0,11.0,82,0.00,,,1.14,679.0,meteohub,2013-06-27 18:06:00,
2013-06-27 14:11:00,80.6,75.0,29.78,West,269,3.0,11.0,83,0.00,,,1.14,329.0,meteohub,2013-06-27 18:11:00,
2013-06-27 14:16:00,80.6,75.0,29.77,WSW,256,7.0,11.0,83,0.00,,,1.14,561.0,meteohub,2013-06-27 18:16:00,
2013-06-27 14:22:00,81.3,76.1,29.77,SW,235,1.0,11.0,84,0.00,,,1.14,661.0,meteohub,2013-06-27 18:22:00,
2013-06-27 14:27:00,82.2,75.4,29.77,West,281,5.0,11.0,80,0.00,,,1.14,1076.0,meteohub,2013-06-27 18:27:00,
2013-06-27 14:32:00,83.1,76.3,29.77,West,273,5.0,11.0,80,0.00,,,1.14,461.0,meteohub,2013-06-27 18:32:00,
2013-06-27 14:37:00,83.1,75.2,29.77,NNW,342,6.0,11.0,77,0.00,,,1.14,380.0,meteohub,2013-06-27 18:37:00,
2013-06-27 14:42:00,83.3,76.1,29.76,SW,236,7.0,15.0,79,0.00,,,1.14,974.0,meteohub,2013-06-27 18:42:00,
2013-06-27 14:47:00,83.7,76.8,29.76,NNW,340,5.0,15.0,80,0.00,,,1.14,998.0,meteohub,2013-06-27 18:47:00,
2013-06-27 14:52:00,84.2,75.7,29.76,WNW,289,8.0,12.0,76,0.00,,,1.14,1058.0,meteohub,2013-06-27 18:52:00,
2013-06-27 14:57:00,84.0,74.8,29.76,WNW,298,8.0,12.0,74,0.00,,,1.14,1107.0,meteohub,2013-06-27 18:57:00,
2013-06-27 15:02:00,83.3,73.8,29.76,NW,312,4.0,15.0,73,0.00,,,1.14,193.0,meteohub,2013-06-27 19:02:00,
2013-06-27 15:07:00,82.2,73.9,29.76,North,354,5.0,15.0,76,0.00,,,1.14,279.0,meteohub,2013-06-27 19:07:00,
2013-06-27 15:12:00,82.6,74.3,29.77,West,273,4.0,15.0,76,0.00,,,1.14,1018.0,meteohub,2013-06-27 19:12:00,
2013-06-27 15:17:00,83.5,74.7,29.76,West,281,3.0,11.0,75,0.00,,,1.14,900.0,meteohub,2013-06-27 19:17:00,
2013-06-27 15:22:00,84.0,75.2,29.75,NNW,348,5.0,11.0,75,0.00,,,1.14,461.0,meteohub,2013-06-27 19:22:00,
2013-06-27 15:27:00,84.6,73.2,29.75,WNW,293,7.0,11.0,69,0.00,,,1.14,918.0,meteohub,2013-06-27 19:27:00,
2013-06-27 15:32:00,84.7,73.4,29.76,NW,320,5.0,12.0,69,0.00,,,1.14,925.0,meteohub,2013-06-27 19:32:00,
2013-06-27 15:37:00,84.4,71.8,29.76,WNW,291,9.0,15.0,66,0.00,,,1.14,408.0,meteohub,2013-06-27 19:37:00,
2013-06-27 15:43:00,84.0,72.0,29.75,NW,306,3.0,15.0,67,0.00,,,1.14,784.0,meteohub,2013-06-27 19:43:00,
2013-06-27 15:48:00,84.9,73.2,29.75,WNW,300,7.0,15.0,68,0.00,,,1.14,889.0,meteohub,2013-06-27 19:48:00,
2013-06-27 15:53:00,85.5,73.8,29.75,WNW,300,3.0,13.0,68,0.00,,,1.14,849.0,meteohub,2013-06-27 19:53:00,
2013-06-27 15:58:00,85.5,74.1,29.75,WNW,292,5.0,13.0,69,0.00,,,1.14,336.0,meteohub,2013-06-27 19:58:00,
2013-06-27 16:03:00,85.5,73.8,29.75,NNE,22,4.0,13.0,68,0.00,,,1.14,403.0,meteohub,2013-06-27 20:03:00,
2013-06-27 16:08:00,85.5,73.8,29.75,NW,304,3.0,9.0,68,0.00,,,1.14,770.0,meteohub,2013-06-27 20:08:00,
2013-06-27 16:13:00,85.8,73.6,29.75,WNW,294,7.0,9.0,67,0.00,,,1.14,821.0,meteohub,2013-06-27 20:13:00,
2013-06-27 16:18:00,85.6,72.1,29.75,North,354,3.0,13.0,64,0.00,,,1.14,209.0,meteohub,2013-06-27 20:18:00,
2013-06-27 16:24:00,84.9,72.3,29.75,NW,311,8.0,13.0,66,0.00,,,1.14,854.0,meteohub,2013-06-27 20:24:00,
2013-06-27 16:29:00,84.9,73.6,29.75,NNW,327,3.0,13.0,69,0.00,,,1.14,721.0,meteohub,2013-06-27 20:29:00,
2013-06-27 16:34:00,85.3,73.0,29.75,West,278,5.0,13.0,67,0.00,,,1.14,733.0,meteohub,2013-06-27 20:34:00,
2013-06-27 16:39:00,86.0,72.3,29.74,NNE,21,7.0,13.0,64,0.00,,,1.14,721.0,meteohub,2013-06-27 20:39:00,
2013-06-27 16:44:00,85.8,71.8,29.74,NW,321,7.0,13.0,63,0.00,,,1.14,619.0,meteohub,2013-06-27 20:44:00,
2013-06-27 16:50:00,86.0,73.8,29.74,West,263,6.0,14.0,67,0.00,,,1.14,638.0,meteohub,2013-06-27 20:50:00,
2013-06-27 16:55:00,86.2,73.0,29.74,NW,308,6.0,14.0,65,0.00,,,1.14,693.0,meteohub,2013-06-27 20:55:00,
2013-06-27 17:00:00,86.2,73.0,29.73,NW,321,8.0,11.0,65,0.00,,,1.14,605.0,meteohub,2013-06-27 21:00:00,
2013-06-27 17:05:00,86.2,72.5,29.73,NNW,333,7.0,11.0,64,0.00,,,1.14,643.0,meteohub,2013-06-27 21:05:00,
2013-06-27 17:12:00,85.8,71.8,29.73,NNW,344,5.0,11.0,63,0.00,,,1.14,719.0,meteohub,2013-06-27 21:12:00,
2013-06-27 17:17:00,86.0,72.0,29.73,WNW,286,7.0,11.0,63,0.00,,,1.14,613.0,meteohub,2013-06-27 21:17:00,
2013-06-27 17:22:00,86.2,71.6,29.73,West,269,5.0,13.0,62,0.00,,,1.14,608.0,meteohub,2013-06-27 21:22:00,
2013-06-27 17:27:00,86.2,71.1,29.73,WNW,288,4.0,13.0,61,0.00,,,1.14,582.0,meteohub,2013-06-27 21:27:00,
2013-06-27 17:32:00,86.4,72.3,29.73,WNW,296,11.0,15.0,63,0.00,,,1.14,568.0,meteohub,2013-06-27 21:32:00,
2013-06-27 17:37:00,85.8,71.8,29.73,NW,319,3.0,15.0,63,0.00,,,1.14,552.0,meteohub,2013-06-27 21:37:00,
2013-06-27 17:42:00,85.8,71.2,29.73,NW,318,5.0,15.0,62,0.00,,,1.14,550.0,meteohub,2013-06-27 21:42:00,
2013-06-27 17:47:00,85.6,71.6,29.72,WNW,300,6.0,15.0,63,0.00,,,1.14,135.0,meteohub,2013-06-27 21:47:00,
2013-06-27 17:53:00,85.6,72.1,29.72,NNW,336,7.0,14.0,64,0.00,,,1.14,526.0,meteohub,2013-06-27 21:53:00,
2013-06-27 18:02:00,86.2,71.6,29.72,NW,315,8.0,14.0,62,0.00,,,1.14,441.0,meteohub,2013-06-27 22:02:00,
2013-06-27 18:07:00,86.0,72.0,29.73,NW,314,5.0,12.0,63,0.00,,,1.14,492.0,meteohub,2013-06-27 22:07:00,
2013-06-27 18:12:00,85.6,71.6,29.73,NW,323,4.0,12.0,63,0.00,,,1.14,137.0,meteohub,2013-06-27 22:12:00,
2013-06-27 18:17:00,85.3,71.8,29.73,NNW,341,2.0,12.0,64,0.00,,,1.14,454.0,meteohub,2013-06-27 22:17:00,
2013-06-27 18:22:00,86.2,73.4,29.73,NNW,331,5.0,10.0,66,0.00,,,1.14,527.0,meteohub,2013-06-27 22:22:00,
2013-06-27 18:28:00,86.5,72.0,29.73,WNW,298,7.0,9.0,62,0.00,,,1.14,411.0,meteohub,2013-06-27 22:28:00,
2013-06-27 18:33:00,86.4,71.8,29.73,NW,315,4.0,9.0,62,0.00,,,1.14,438.0,meteohub,2013-06-27 22:33:00,
2013-06-27 18:40:00,86.2,72.1,29.73,WNW,291,3.0,10.0,63,0.00,,,1.14,401.0,meteohub,2013-06-27 22:40:00,
2013-06-27 18:47:00,86.4,72.7,29.72,NW,314,4.0,10.0,64,0.00,,,1.14,336.0,meteohub,2013-06-27 22:47:00,
2013-06-27 18:52:00,85.8,72.1,29.72,West,280,3.0,9.0,64,0.00,,,1.14,146.0,meteohub,2013-06-27 22:52:00,
2013-06-27 18:57:00,85.6,71.6,29.73,NW,313,2.0,9.0,63,0.00,,,1.14,327.0,meteohub,2013-06-27 22:57:00,
2013-06-27 19:02:00,85.6,71.6,29.73,WNW,298,3.0,9.0,63,0.00,,,1.14,278.0,meteohub,2013-06-27 23:02:00,
2013-06-27 19:07:00,85.8,72.7,29.73,WNW,302,2.0,9.0,65,0.00,,,1.14,309.0,meteohub,2013-06-27 23:07:00,
2013-06-27 19:12:00,85.8,71.8,29.73,NNW,330,2.0,7.0,63,0.00,,,1.14,63.0,meteohub,2013-06-27 23:12:00,
2013-06-27 19:17:00,85.5,72.0,29.72,WNW,290,2.0,8.0,64,0.00,,,1.14,267.0,meteohub,2013-06-27 23:17:00,
2013-06-27 19:24:00,85.5,70.9,29.72,NW,305,5.0,9.0,62,0.00,,,1.14,255.0,meteohub,2013-06-27 23:24:00,
2013-06-27 19:31:00,85.6,71.6,29.71,NW,321,7.0,9.0,63,0.00,,,1.14,253.0,meteohub,2013-06-27 23:31:00,
2013-06-27 19:37:00,85.8,71.2,29.71,North,359,2.0,8.0,62,0.00,,,1.14,244.0,meteohub,2013-06-27 23:37:00,
2013-06-27 19:42:00,85.8,71.2,29.71,WNW,286,2.0,9.0,62,0.00,,,1.14,230.0,meteohub,2013-06-27 23:42:00,
2013-06-27 19:47:00,85.6,71.1,29.71,NW,322,2.0,9.0,62,0.00,,,1.14,216.0,meteohub,2013-06-27 23:47:00,
2013-06-27 19:52:00,85.8,70.9,29.72,NW,317,3.0,9.0,61,0.00,,,1.14,199.0,meteohub,2013-06-27 23:52:00,
2013-06-27 19:57:00,85.5,70.5,29.72,NW,305,5.0,9.0,61,0.00,,,1.14,174.0,meteohub,2013-06-27 23:57:00,
2013-06-27 20:02:00,85.3,70.3,29.72,WNW,291,6.0,9.0,61,0.00,,,1.14,70.0,meteohub,2013-06-28 00:02:00,
2013-06-27 20:07:00,84.7,70.7,29.72,WNW,301,2.0,9.0,63,0.00,,,0.00,58.0,meteohub,2013-06-28 00:07:00,
2013-06-27 20:12:00,84.4,70.9,29.73,WNW,289,2.0,8.0,64,0.00,,,0.00,47.0,meteohub,2013-06-28 00:12:00,
2013-06-27 20:17:00,84.0,71.1,29.73,West,273,3.0,8.0,65,0.00,,,0.00,39.0,meteohub,2013-06-28 00:17:00,
2013-06-27 20:22:00,83.7,70.7,29.73,NW,306,2.0,7.0,65,0.00,,,0.00,33.0,meteohub,2013-06-28 00:22:00,
2013-06-27 20:27:00,83.5,70.9,29.73,West,281,3.0,8.0,66,0.00,,,0.00,28.0,meteohub,2013-06-28 00:27:00,
2013-06-27 20:32:00,82.9,70.9,29.73,NW,311,2.0,8.0,67,0.00,,,0.00,26.0,meteohub,2013-06-28 00:32:00,
2013-06-27 20:39:00,82.9,70.3,29.73,NW,312,1.0,8.0,66,0.00,,,0.00,26.0,meteohub,2013-06-28 00:39:00,
2013-06-27 20:45:00,82.6,70.9,29.73,NW,315,0.0,7.0,68,0.00,,,0.00,21.0,meteohub,2013-06-28 00:45:00,
2013-06-27 20:50:00,81.7,71.8,29.73,NW,304,1.0,3.0,72,0.00,,,0.00,14.0,meteohub,2013-06-28 00:50:00,
2013-06-27 20:56:00,81.1,71.2,29.73,NW,306,0.0,3.0,72,0.00,,,0.00,11.0,meteohub,2013-06-28 00:56:00,
2013-06-27 21:01:00,80.8,71.8,29.74,NW,306,1.0,3.0,74,0.00,,,0.00,9.0,meteohub,2013-06-28 01:01:00,
2013-06-27 21:06:00,80.2,72.0,29.74,NW,306,0.0,3.0,76,0.00,,,0.00,7.0,meteohub,2013-06-28 01:06:00,
2013-06-27 21:11:00,79.5,72.1,29.74,NW,306,0.0,2.0,78,0.00,,,0.00,5.0,meteohub,2013-06-28 01:11:00,
2013-06-27 21:17:00,79.0,71.6,29.74,NW,306,0.0,1.0,78,0.00,,,0.00,0.0,meteohub,2013-06-28 01:17:00,
2013-06-27 21:23:00,78.4,71.8,29.74,NW,306,0.0,1.0,80,0.00,,,0.00,0.0,meteohub,2013-06-28 01:23:00,
2013-06-27 21:28:00,77.5,71.2,29.74,NW,306,1.0,1.0,81,0.00,,,0.00,0.0,meteohub,2013-06-28 01:28:00,
2013-06-27 21:36:00,77.0,71.1,29.74,NW,306,0.0,1.0,82,0.00,,,0.00,0.0,meteohub,2013-06-28 01:36:00,
2013-06-27 21:41:00,75.9,71.1,29.74,NW,306,0.0,1.0,85,0.00,,,0.00,0.0,meteohub,2013-06-28 01:41:00,
2013-06-27 21:47:00,75.6,70.7,29.74,NW,306,0.0,0.0,85,0.00,,,0.00,0.0,meteohub,2013-06-28 01:47:00,
2013-06-27 21:52:00,75.0,70.5,29.75,NW,306,0.0,1.0,86,0.00,,,0.00,0.0,meteohub,2013-06-28 01:52:00,
2013-06-27 21:57:00,74.8,70.3,29.74,NW,306,0.0,1.0,86,0.00,,,0.00,0.0,meteohub,2013-06-28 01:57:00,
2013-06-27 22:02:00,74.5,70.3,29.74,NW,306,2.0,2.0,87,0.00,,,0.00,0.0,meteohub,2013-06-28 02:02:00,
2013-06-27 22:07:00,74.1,70.3,29.74,NW,306,0.0,2.0,88,0.00,,,0.00,0.0,meteohub,2013-06-28 02:07:00,
2013-06-27 22:12:00,73.9,70.2,29.74,NW,306,0.0,2.0,88,0.00,,,0.00,0.0,meteohub,2013-06-28 02:12:00,
2013-06-27 22:17:00,73.8,70.3,29.74,NW,306,1.0,2.0,89,0.00,,,0.00,0.0,meteohub,2013-06-28 02:17:00,
2013-06-27 22:24:00,73.8,70.7,29.74,West,279,2.0,3.0,90,0.00,,,0.00,0.0,meteohub,2013-06-28 02:24:00,
2013-06-27 22:32:00,73.9,70.9,29.74,West,263,0.0,3.0,90,0.00,,,0.00,0.0,meteohub,2013-06-28 02:32:00,
2013-06-27 22:39:00,73.9,70.9,29.74,West,263,0.0,3.0,90,0.00,,,0.00,0.0,meteohub,2013-06-28 02:39:00,
2013-06-27 22:44:00,74.3,71.4,29.74,South,191,2.0,4.0,91,0.00,,,0.00,0.0,meteohub,2013-06-28 02:44:00,
2013-06-27 22:52:00,74.5,71.6,29.74,SW,229,3.0,4.0,91,0.00,,,0.00,0.0,meteohub,2013-06-28 02:52:00,
2013-06-27 22:57:00,74.8,72.0,29.73,WSW,255,1.0,4.0,91,0.00,,,0.00,0.0,meteohub,2013-06-28 02:57:00,
2013-06-27 23:05:00,74.8,72.0,29.73,WSW,242,4.0,4.0,91,0.00,,,0.00,0.0,meteohub,2013-06-28 03:05:00,
2013-06-27 23:12:00,75.4,72.3,29.73,SW,215,2.0,5.0,90,0.00,,,0.00,0.0,meteohub,2013-06-28 03:12:00,
2013-06-27 23:17:00,75.6,72.5,29.73,West,259,3.0,5.0,90,0.00,,,0.00,0.0,meteohub,2013-06-28 03:17:00,
2013-06-27 23:22:00,75.6,72.1,29.72,WSW,254,0.0,5.0,89,0.00,,,0.00,0.0,meteohub,2013-06-28 03:22:00,
2013-06-27 23:27:00,75.7,72.3,29.72,SW,223,4.0,6.0,89,0.00,,,0.00,0.0,meteohub,2013-06-28 03:27:00,
2013-06-27 23:35:00,75.7,72.0,29.72,WNW,282,2.0,6.0,88,0.00,,,0.00,0.0,meteohub,2013-06-28 03:35:00,
2013-06-27 23:42:00,75.7,71.6,29.73,WSW,242,2.0,6.0,87,0.00,,,0.00,0.0,meteohub,2013-06-28 03:42:00,
2013-06-27 23:47:00,75.7,71.6,29.73,WSW,244,1.0,6.0,87,0.00,,,0.00,0.0,meteohub,2013-06-28 03:47:00,
2013-06-27 23:52:00,75.7,71.6,29.72,SW,215,1.0,6.0,87,0.00,,,0.00,0.0,meteohub,2013-06-28 03:52:00,
2013-06-27 23:57:00,75.6,71.4,29.73,SW,232,1.0,4.0,87,0.00,,,0.00,0.0,meteohub,2013-06-28 03:57:00,